| time (UTC) | temp F | wind direction | speed MPH | gust MPH | rain 1hr in | rain 24hr in | rain mn in | humidity % | barometer mb |
| 20260508050525 | 64 | 222 | 8.0 | 18.0 | 0.00 | 0.03 | 0.03 | 79 | 1027.7 |
| 20260508050004 | 63 | 221 | 8.0 | 18.0 | 0.00 | 0.03 | 0.03 | 79 | 1027.9 |
| 20260508045504 | 64 | 231 | 9.0 | 13.0 | 0.00 | 0.03 | 0.03 | 80 | 1028.0 |
| 20260508045010 | 64 | 235 | 10.0 | 18.0 | 0.01 | 0.03 | 0.03 | 81 | 1028.0 |
| 20260508044504 | 64 | 238 | 9.0 | 19.0 | 0.01 | 0.03 | 0.03 | 82 | 1028.0 |
| 20260508044025 | 63 | 237 | 7.0 | 19.0 | 0.01 | 0.03 | 0.03 | 83 | 1028.1 |
| 20260508043504 | 63 | 233 | 8.0 | 13.0 | 0.01 | 0.03 | 0.03 | 86 | 1028.1 |
| 20260508043004 | 62 | 224 | 8.0 | 15.0 | 0.02 | 0.03 | 0.03 | 88 | 1028.1 |
| 20260508042525 | 61 | 217 | 8.0 | 15.0 | 0.02 | 0.03 | 0.03 | 88 | 1028.2 |
| 20260508042004 | 60 | 216 | 8.0 | 14.0 | 0.02 | 0.03 | 0.03 | 88 | 1028.2 |
| 20260508041504 | 60 | 220 | 8.0 | 18.0 | 0.02 | 0.03 | 0.03 | 88 | 1028.2 |
| 20260508041005 | 61 | 228 | 9.0 | 18.0 | 0.02 | 0.03 | 0.03 | 88 | 1028.4 |
| 20260508040504 | 60 | 238 | 10.0 | 18.0 | 0.02 | 0.03 | 0.03 | 87 | 1028.4 |
| 20260508040004 | 60 | 233 | 10.0 | 18.0 | 0.02 | 0.03 | 0.03 | 87 | 1028.4 |
| 20260508035504 | 61 | 232 | 8.0 | 18.0 | 0.02 | 0.03 | 0.03 | 87 | 1028.5 |
| 20260508035004 | 62 | 233 | 8.0 | 18.0 | 0.02 | 0.02 | 0.02 | 87 | 1028.4 |
| 20260508034504 | 62 | 237 | 9.0 | 17.0 | 0.02 | 0.02 | 0.02 | 87 | 1028.5 |
| 20260508034004 | 61 | 241 | 8.0 | 17.0 | 0.02 | 0.02 | 0.02 | 87 | 1028.7 |
| 20260508033504 | 61 | 225 | 7.0 | 17.0 | 0.02 | 0.02 | 0.02 | 86 | 1028.7 |
| 20260508033025 | 62 | 219 | 6.0 | 13.0 | 0.01 | 0.02 | 0.02 | 87 | 1028.7 |
| 20260508032504 | 61 | 223 | 6.0 | 11.0 | 0.01 | 0.02 | 0.02 | 87 | 1028.8 |
| 20260508032004 | 60 | 226 | 7.0 | 11.0 | 0.01 | 0.02 | 0.02 | 87 | 1028.8 |
| 20260508031504 | 61 | 226 | 8.0 | 14.0 | 0.01 | 0.02 | 0.02 | 87 | 1028.8 |
| 20260508031025 | 61 | 221 | 9.0 | 17.0 | 0.01 | 0.02 | 0.02 | 87 | 1028.9 |
| 20260508030504 | 60 | 224 | 9.0 | 18.0 | 0.02 | 0.02 | 0.02 | 86 | 1029.0 |
| 20260508030004 | 60 | 229 | 8.0 | 18.0 | 0.02 | 0.02 | 0.02 | 85 | 1029.1 |
| 20260508025504 | 61 | 240 | 8.0 | 15.0 | 0.01 | 0.01 | 0.01 | 85 | 1029.1 |
| 20260508025025 | 61 | 241 | 8.0 | 13.0 | 0.01 | 0.01 | 0.01 | 85 | 1029.1 |
| 20260508024504 | 62 | 230 | 8.0 | 15.0 | 0.01 | 0.01 | 0.01 | 85 | 1029.2 |
| 20260508024004 | 62 | 230 | 9.0 | 15.0 | 0.01 | 0.01 | 0.01 | 88 | 1029.3 |
| 20260508023504 | 60 | 229 | 8.0 | 15.0 | 0.01 | 0.01 | 0.01 | 87 | 1029.4 |
| 20260508023004 | 60 | 232 | 7.0 | 15.0 | 0.01 | 0.01 | 0.01 | 86 | 1029.5 |
| 20260508022504 | 60 | 240 | 7.0 | 14.0 | 0.01 | 0.01 | 0.01 | 86 | 1029.4 |
| 20260508022004 | 60 | 241 | 8.0 | 14.0 | 0.01 | 0.01 | 0.01 | 86 | 1029.5 |
| 20260508021504 | 60 | 232 | 9.0 | 17.0 | 0.01 | 0.01 | 0.01 | 86 | 1029.6 |
| 20260508021003 | 60 | 226 | 8.0 | 17.0 | 0.01 | 0.01 | 0.01 | 85 | 1029.7 |
| 20260508020504 | 60 | 227 | 8.0 | 15.0 | 0.00 | 0.00 | 0.00 | 83 | 1029.7 |
| 20260508020004 | 61 | 230 | 8.0 | 13.0 | 0.00 | 0.00 | 0.00 | 83 | 1029.7 |
| 20260508015525 | 61 | 223 | 7.0 | 17.0 | 0.00 | 0.00 | 0.00 | 84 | 1029.7 |
| 20260508015004 | 61 | 219 | 6.0 | 17.0 | 0.00 | 0.00 | 0.00 | 86 | 1029.8 |
| 20260508014504 | 60 | 223 | 6.0 | 14.0 | 0.00 | 0.00 | 0.00 | 87 | 1029.9 |
| 20260508014004 | 60 | 220 | 6.0 | 13.0 | 0.00 | 0.00 | 0.00 | 86 | 1030.0 |
| 20260508013504 | 60 | 216 | 6.0 | 13.0 | 0.00 | 0.00 | 0.00 | 85 | 1030.0 |
| 20260508013004 | 60 | 214 | 6.0 | 11.0 | 0.00 | 0.00 | 0.00 | 86 | 1030.1 |
| 20260508012525 | 60 | 207 | 6.0 | 10.0 | 0.00 | 0.00 | 0.00 | 86 | 1030.1 |
| 20260508012025 | 60 | 212 | 5.0 | 10.0 | 0.00 | 0.00 | 0.00 | 86 | 1030.2 |
| 20260508011504 | 60 | 210 | 5.0 | 10.0 | 0.00 | 0.00 | 0.00 | 86 | 1030.2 |
| 20260508011004 | 60 | 199 | 6.0 | 10.0 | 0.00 | 0.00 | 0.00 | 85 | 1030.2 |
| 20260508010504 | 59 | 205 | 6.0 | 13.0 | 0.00 | 0.00 | 0.00 | 85 | 1030.3 |
| 20260508010025 | 59 | 216 | 6.0 | 14.0 | 0.00 | 0.00 | 0.00 | 83 | 1030.2 |
| 20260508005504 | 60 | 211 | 6.0 | 14.0 | 0.00 | 0.00 | 0.00 | 82 | 1030.2 |
| 20260508005025 | 60 | 198 | 6.0 | 13.0 | 0.00 | 0.00 | 0.00 | 81 | 1030.2 |
| 20260508004504 | 60 | 196 | 7.0 | 10.0 | 0.00 | 0.00 | 0.00 | 80 | 1030.2 |
| 20260508004004 | 60 | 207 | 6.0 | 13.0 | 0.00 | 0.00 | 0.00 | 79 | 1030.1 |
| 20260508003504 | 60 | 212 | 5.0 | 13.0 | 0.00 | 0.00 | 0.00 | 79 | 1030.0 |
| 20260508003004 | 60 | 212 | 6.0 | 11.0 | 0.00 | 0.00 | 0.00 | 80 | 1029.9 |
| 20260508002504 | 60 | 204 | 6.0 | 11.0 | 0.00 | 0.00 | 0.00 | 80 | 1029.9 |
| 20260508002003 | 60 | 207 | 6.0 | 11.0 | 0.00 | 0.00 | 0.00 | 80 | 1029.9 |
| 20260508001503 | 59 | 219 | 7.0 | 13.0 | 0.00 | 0.00 | 0.00 | 79 | 1029.9 |
| 20260508001004 | 59 | 214 | 8.0 | 13.0 | 0.00 | 0.00 | 0.00 | 80 | 1029.8 |
| 20260508000525 | 59 | 207 | 9.0 | 18.0 | 0.00 | 0.00 | 0.00 | 81 | 1029.8 |
| 20260508000004 | 59 | 213 | 8.0 | 18.0 | 0.00 | 0.00 | 0.00 | 80 | 1029.9 |
| 20260507235504 | 59 | 213 | 8.0 | 15.0 | 0.00 | 0.00 | 0.00 | 80 | 1029.9 |
| 20260507235024 | 59 | 209 | 8.0 | 14.0 | 0.00 | 0.00 | 0.00 | 79 | 1029.8 |
| 20260507234504 | 60 | 211 | 8.0 | 18.0 | 0.00 | 0.00 | 0.00 | 77 | 1029.8 |
| 20260507234004 | 60 | 222 | 8.0 | 18.0 | 0.00 | 0.00 | 0.00 | 77 | 1029.8 |
| 20260507233504 | 60 | 229 | 8.0 | 15.0 | 0.00 | 0.00 | 0.00 | 76 | 1029.7 |
| 20260507233025 | 60 | 224 | 7.0 | 14.0 | 0.00 | 0.00 | 0.00 | 76 | 1029.6 |
| 20260507232504 | 59 | 224 | 6.0 | 14.0 | 0.00 | 0.00 | 0.00 | 76 | 1029.6 |
| 20260507232004 | 59 | 224 | 6.0 | 13.0 | 0.00 | 0.00 | 0.00 | 77 | 1029.6 |
| 20260507231525 | 59 | 218 | 6.0 | 14.0 | 0.00 | 0.00 | 0.00 | 77 | 1029.6 |
| 20260507231003 | 59 | 221 | 6.0 | 14.0 | 0.00 | 0.00 | 0.00 | 77 | 1029.6 |
| 20260507230524 | 59 | 229 | 7.0 | 10.0 | 0.00 | 0.00 | 0.00 | 77 | 1029.6 |
| 20260507230004 | 59 | 236 | 8.0 | 14.0 | 0.00 | 0.00 | 0.00 | 76 | 1029.6 |
| 20260507225504 | 59 | 241 | 7.0 | 14.0 | 0.00 | 0.00 | 0.00 | 76 | 1029.6 |
| 20260507225004 | 59 | 236 | 6.0 | 14.0 | 0.00 | 0.00 | 0.00 | 76 | 1029.6 |
| 20260507224524 | 59 | 231 | 6.0 | 14.0 | 0.00 | 0.00 | 0.00 | 77 | 1029.5 |
| 20260507224004 | 58 | 227 | 4.0 | 13.0 | 0.00 | 0.00 | 0.00 | 78 | 1029.4 |
| 20260507223503 | 58 | 227 | 3.0 | 13.0 | 0.00 | 0.00 | 0.00 | 78 | 1029.4 |
| 20260507223003 | 58 | 223 | 3.0 | 11.0 | 0.00 | 0.00 | 0.00 | 80 | 1029.4 |
| 20260507222503 | 58 | 212 | 3.0 | 9.0 | 0.00 | 0.00 | 0.00 | 80 | 1029.3 |
| 20260507222004 | 58 | 214 | 2.0 | 9.0 | 0.00 | 0.00 | 0.00 | 80 | 1029.2 |
| 20260507221524 | 57 | 225 | 1.0 | 6.0 | 0.00 | 0.00 | 0.00 | 81 | 1029.1 |
| 20260507221004 | 57 | 224 | 0.0 | 6.0 | 0.00 | 0.00 | 0.00 | 81 | 1029.1 |
| 20260507220503 | 57 | 207 | 0.0 | 5.0 | 0.00 | 0.00 | 0.00 | 81 | 1029.1 |
| 20260507220025 | 57 | 211 | 0.0 | 3.0 | 0.00 | 0.00 | 0.00 | 81 | 1029.0 |
| 20260507215504 | 57 | 223 | 1.0 | 6.0 | 0.00 | 0.00 | 0.00 | 81 | 1028.9 |
| 20260507215004 | 57 | 226 | 0.0 | 6.0 | 0.00 | 0.00 | 0.00 | 82 | 1028.8 |
| 20260507214524 | 57 | 222 | 0.0 | 5.0 | 0.00 | 0.00 | 0.00 | 82 | 1028.8 |
| 20260507214004 | 56 | 0 | 0.0 | 0.0 | 0.00 | 0.00 | 0.00 | 82 | 1028.8 |
| 20260507213524 | 56 | 0 | 0.0 | 0.0 | 0.00 | 0.00 | 0.00 | 82 | 1028.8 |
| 20260507213003 | 56 | 0 | 0.0 | 0.0 | 0.00 | 0.00 | 0.00 | 82 | 1028.7 |
| 20260507212503 | 56 | 0 | 0.0 | 0.0 | 0.00 | 0.00 | 0.00 | 82 | 1028.6 |
| 20260507212003 | 56 | 0 | 0.0 | 0.0 | 0.00 | 0.00 | 0.00 | 82 | 1028.6 |
| 20260507211504 | 56 | 0 | 0.0 | 0.0 | 0.00 | 0.00 | 0.00 | 82 | 1028.7 |
| 20260507211025 | 57 | 0 | 0.0 | 0.0 | 0.00 | 0.00 | 0.00 | 82 | 1028.7 |
| 20260507210503 | 57 | 0 | 0.0 | 0.0 | 0.00 | 0.00 | 0.00 | 82 | 1028.7 |
| 20260507210025 | 57 | 231 | 1.0 | 3.0 | 0.00 | 0.00 | 0.00 | 82 | 1028.7 |
| 20260507205504 | 57 | 215 | 1.0 | 8.0 | 0.00 | 0.00 | 0.00 | 82 | 1028.7 |
| 20260507205024 | 57 | 215 | 1.0 | 8.0 | 0.00 | 0.00 | 0.00 | 82 | 1028.7 |
| 20260507204504 | 56 | 216 | 1.0 | 6.0 | 0.00 | 0.00 | 0.00 | 82 | 1028.6 |
| 20260507204003 | 56 | 213 | 1.0 | 5.0 | 0.00 | 0.00 | 0.00 | 82 | 1028.6 |
| 20260507203503 | 56 | 208 | 1.0 | 6.0 | 0.00 | 0.00 | 0.00 | 82 | 1028.6 |
| 20260507203003 | 57 | 206 | 1.0 | 6.0 | 0.00 | 0.00 | 0.00 | 82 | 1028.5 |
| 20260507202503 | 57 | 207 | 2.0 | 6.0 | 0.00 | 0.00 | 0.00 | 82 | 1028.5 |
| 20260507202004 | 57 | 205 | 2.0 | 5.0 | 0.00 | 0.00 | 0.00 | 82 | 1028.5 |
| 20260507201503 | 57 | 198 | 2.0 | 9.0 | 0.00 | 0.00 | 0.00 | 82 | 1028.5 |
| 20260507201003 | 57 | 192 | 2.0 | 9.0 | 0.00 | 0.00 | 0.00 | 81 | 1028.5 |
| 20260507200524 | 57 | 188 | 2.0 | 6.0 | 0.00 | 0.00 | 0.00 | 81 | 1028.7 |
| 20260507200003 | 57 | 217 | 2.0 | 6.0 | 0.00 | 0.00 | 0.00 | 81 | 1028.7 |
| 20260507195503 | 57 | 227 | 1.0 | 6.0 | 0.00 | 0.00 | 0.00 | 81 | 1028.6 |
| 20260507195024 | 57 | 244 | 0.0 | 6.0 | 0.00 | 0.00 | 0.00 | 81 | 1028.6 |
| 20260507194503 | 57 | 240 | 1.0 | 4.0 | 0.00 | 0.00 | 0.00 | 81 | 1028.7 |
| 20260507194003 | 57 | 242 | 1.0 | 5.0 | 0.00 | 0.00 | 0.00 | 81 | 1028.7 |
| 20260507193504 | 57 | 246 | 0.0 | 6.0 | 0.00 | 0.00 | 0.00 | 81 | 1028.6 |
| 20260507193025 | 56 | 256 | 0.0 | 6.0 | 0.00 | 0.00 | 0.00 | 81 | 1028.6 |
| 20260507192503 | 56 | 0 | 0.0 | 0.0 | 0.00 | 0.00 | 0.00 | 81 | 1028.6 |
| 20260507192003 | 56 | 0 | 0.0 | 0.0 | 0.00 | 0.00 | 0.00 | 81 | 1028.6 |
| 20260507191503 | 56 | 0 | 0.0 | 0.0 | 0.00 | 0.00 | 0.00 | 81 | 1028.5 |
| 20260507191003 | 56 | 207 | 0.0 | 5.0 | 0.00 | 0.00 | 0.00 | 81 | 1028.5 |
| 20260507190504 | 56 | 210 | 0.0 | 5.0 | 0.00 | 0.00 | 0.00 | 81 | 1028.6 |
| 20260507190005 | 56 | 219 | 1.0 | 3.0 | 0.00 | 0.00 | 0.00 | 81 | 1028.5 |
| 20260507185503 | 56 | 210 | 2.0 | 6.0 | 0.00 | 0.00 | 0.00 | 82 | 1028.4 |
| 20260507185003 | 56 | 201 | 3.0 | 8.0 | 0.00 | 0.00 | 0.00 | 82 | 1028.5 |
| 20260507184504 | 56 | 192 | 3.0 | 8.0 | 0.00 | 0.00 | 0.00 | 82 | 1028.4 |
| 20260507184025 | 56 | 190 | 3.0 | 8.0 | 0.00 | 0.00 | 0.00 | 82 | 1028.4 |
| 20260507183503 | 56 | 191 | 4.0 | 9.0 | 0.00 | 0.00 | 0.00 | 83 | 1028.5 |
| 20260507183003 | 56 | 190 | 6.0 | 10.0 | 0.00 | 0.00 | 0.00 | 83 | 1028.4 |
| 20260507182503 | 56 | 192 | 6.0 | 10.0 | 0.00 | 0.00 | 0.00 | 83 | 1028.4 |
| 20260507182025 | 56 | 199 | 6.0 | 11.0 | 0.00 | 0.00 | 0.00 | 83 | 1028.4 |
| 20260507181504 | 56 | 202 | 6.0 | 11.0 | 0.00 | 0.00 | 0.00 | 82 | 1028.4 |
| 20260507181004 | 56 | 201 | 5.0 | 13.0 | 0.00 | 0.00 | 0.00 | 82 | 1028.4 |
| 20260507180504 | 56 | 198 | 4.0 | 13.0 | 0.00 | 0.00 | 0.00 | 82 | 1028.4 |
| 20260507180004 | 56 | 192 | 3.0 | 10.0 | 0.00 | 0.00 | 0.00 | 81 | 1028.5 |
| 20260507175525 | 56 | 189 | 2.0 | 10.0 | 0.00 | 0.00 | 0.00 | 81 | 1028.6 |
| 20260507175025 | 56 | 193 | 1.0 | 6.0 | 0.00 | 0.00 | 0.00 | 80 | 1028.7 |
| 20260507174504 | 56 | 196 | 1.0 | 5.0 | 0.00 | 0.00 | 0.00 | 80 | 1028.7 |
| 20260507174004 | 56 | 211 | 2.0 | 6.0 | 0.00 | 0.00 | 0.00 | 80 | 1028.6 |
| 20260507173504 | 57 | 212 | 2.0 | 6.0 | 0.00 | 0.00 | 0.00 | 80 | 1028.6 |
| 20260507173025 | 57 | 216 | 1.0 | 6.0 | 0.00 | 0.00 | 0.00 | 80 | 1028.6 |
| 20260507172504 | 57 | 231 | 2.0 | 5.0 | 0.00 | 0.00 | 0.00 | 80 | 1028.6 |
| 20260507172004 | 57 | 204 | 3.0 | 8.0 | 0.00 | 0.00 | 0.00 | 80 | 1028.5 |
| 20260507171504 | 57 | 194 | 4.0 | 9.0 | 0.00 | 0.00 | 0.00 | 80 | 1028.6 |
| 20260507171004 | 57 | 188 | 4.0 | 11.0 | 0.00 | 0.00 | 0.00 | 80 | 1028.7 |
| 20260507170504 | 57 | 184 | 4.0 | 11.0 | 0.00 | 0.00 | 0.00 | 80 | 1028.7 |
| 20260507170004 | 57 | 187 | 5.0 | 13.0 | 0.00 | 0.00 | 0.00 | 80 | 1028.7 |
| 20260507165504 | 57 | 185 | 6.0 | 13.0 | 0.00 | 0.00 | 0.00 | 80 | 1028.7 |
| 20260507165004 | 57 | 186 | 6.0 | 13.0 | 0.00 | 0.00 | 0.00 | 79 | 1028.7 |
| 20260507164504 | 57 | 191 | 7.0 | 13.0 | 0.00 | 0.00 | 0.00 | 79 | 1028.7 |
| 20260507164004 | 57 | 202 | 7.0 | 18.0 | 0.00 | 0.00 | 0.00 | 79 | 1028.7 |
| 20260507163504 | 57 | 203 | 5.0 | 18.0 | 0.00 | 0.00 | 0.00 | 78 | 1028.7 |
| 20260507163025 | 57 | 203 | 3.0 | 18.0 | 0.00 | 0.00 | 0.00 | 77 | 1028.8 |
| 20260507162504 | 57 | 204 | 3.0 | 10.0 | 0.00 | 0.00 | 0.00 | 77 | 1028.7 |
| 20260507162004 | 57 | 208 | 3.0 | 8.0 | 0.00 | 0.00 | 0.00 | 77 | 1028.7 |
| 20260507161504 | 57 | 205 | 3.0 | 8.0 | 0.00 | 0.00 | 0.00 | 77 | 1028.7 |
| 20260507161004 | 57 | 200 | 3.0 | 6.0 | 0.00 | 0.00 | 0.00 | 77 | 1028.7 |
| 20260507160504 | 57 | 195 | 4.0 | 8.0 | 0.00 | 0.00 | 0.00 | 77 | 1028.7 |
| 20260507160004 | 57 | 196 | 5.0 | 9.0 | 0.00 | 0.00 | 0.00 | 77 | 1028.7 |
| 20260507155525 | 57 | 197 | 5.0 | 10.0 | 0.00 | 0.00 | 0.00 | 76 | 1028.8 |
| 20260507155004 | 57 | 198 | 4.0 | 11.0 | 0.00 | 0.00 | 0.00 | 76 | 1028.9 |
| 20260507154504 | 56 | 193 | 1.0 | 11.0 | 0.00 | 0.00 | 0.00 | 76 | 1028.9 |
| 20260507154025 | 56 | 185 | 0.0 | 11.0 | 0.00 | 0.00 | 0.00 | 76 | 1029.0 |
| 20260507153504 | 56 | 0 | 0.0 | 0.0 | 0.00 | 0.00 | 0.00 | 77 | 1028.9 |
| 20260507153025 | 56 | 0 | 0.0 | 0.0 | 0.00 | 0.00 | 0.00 | 77 | 1028.9 |
| 20260507152504 | 56 | 0 | 0.0 | 0.0 | 0.00 | 0.00 | 0.00 | 77 | 1028.9 |
| 20260507152025 | 56 | 0 | 0.0 | 0.0 | 0.00 | 0.00 | 0.00 | 77 | 1029.0 |
| 20260507151504 | 56 | 0 | 0.0 | 0.0 | 0.00 | 0.00 | 0.00 | 77 | 1028.9 |
| 20260507151004 | 56 | 0 | 0.0 | 0.0 | 0.00 | 0.00 | 0.00 | 77 | 1028.9 |
| 20260507150504 | 56 | 0 | 0.0 | 0.0 | 0.00 | 0.00 | 0.00 | 77 | 1028.9 |
| 20260507150004 | 56 | 0 | 0.0 | 0.0 | 0.00 | 0.00 | 0.00 | 77 | 1029.0 |
| 20260507145504 | 56 | 0 | 0.0 | 0.0 | 0.00 | 0.00 | 0.00 | 77 | 1029.0 |
| 20260507145004 | 56 | 0 | 0.0 | 0.0 | 0.00 | 0.00 | 0.00 | 77 | 1029.0 |
| 20260507144504 | 56 | 0 | 0.0 | 0.0 | 0.00 | 0.00 | 0.00 | 77 | 1029.0 |
| 20260507144025 | 56 | 0 | 0.0 | 0.0 | 0.00 | 0.00 | 0.00 | 77 | 1029.1 |
| 20260507143504 | 56 | 0 | 0.0 | 0.0 | 0.00 | 0.00 | 0.00 | 78 | 1029.1 |
| 20260507143026 | 56 | 0 | 0.0 | 0.0 | 0.00 | 0.00 | 0.00 | 78 | 1029.0 |
| 20260507142525 | 56 | 196 | 1.0 | 5.0 | 0.00 | 0.00 | 0.00 | 78 | 1029.0 |
| 20260507142004 | 56 | 199 | 2.0 | 5.0 | 0.00 | 0.00 | 0.00 | 78 | 1028.9 |
| 20260507141504 | 56 | 202 | 3.0 | 8.0 | 0.00 | 0.00 | 0.00 | 78 | 1029.0 |
| 20260507141025 | 56 | 201 | 3.0 | 8.0 | 0.00 | 0.00 | 0.00 | 78 | 1029.0 |
| 20260507140525 | 56 | 199 | 2.0 | 8.0 | 0.00 | 0.00 | 0.00 | 78 | 1029.0 |
| 20260507140004 | 56 | 203 | 1.0 | 8.0 | 0.00 | 0.00 | 0.00 | 78 | 1029.0 |
| 20260507135504 | 56 | 211 | 1.0 | 6.0 | 0.00 | 0.00 | 0.00 | 78 | 1029.0 |
| 20260507135004 | 55 | 210 | 1.0 | 5.0 | 0.00 | 0.00 | 0.00 | 79 | 1029.1 |
| 20260507134525 | 55 | 210 | 0.0 | 5.0 | 0.00 | 0.00 | 0.00 | 78 | 1029.1 |
| 20260507134004 | 55 | 0 | 0.0 | 0.0 | 0.00 | 0.00 | 0.00 | 79 | 1029.1 |
| 20260507133504 | 55 | 195 | 0.0 | 5.0 | 0.00 | 0.00 | 0.00 | 79 | 1029.1 |
| 20260507133025 | 55 | 195 | 0.0 | 5.0 | 0.00 | 0.00 | 0.00 | 79 | 1029.2 |
| 20260507132504 | 55 | 0 | 0.0 | 0.0 | 0.00 | 0.00 | 0.00 | 79 | 1029.2 |
| 20260507132004 | 55 | 0 | 0.0 | 0.0 | 0.00 | 0.00 | 0.00 | 79 | 1029.2 |
| 20260507131504 | 55 | 203 | 1.0 | 5.0 | 0.00 | 0.00 | 0.00 | 80 | 1029.2 |
| 20260507131004 | 55 | 211 | 1.0 | 5.0 | 0.00 | 0.00 | 0.00 | 80 | 1029.2 |
| 20260507130525 | 55 | 211 | 2.0 | 6.0 | 0.00 | 0.00 | 0.00 | 80 | 1029.1 |
| 20260507130004 | 55 | 207 | 2.0 | 6.0 | 0.00 | 0.00 | 0.00 | 80 | 1029.2 |
| 20260507125525 | 55 | 202 | 3.0 | 6.0 | 0.00 | 0.00 | 0.00 | 81 | 1029.2 |
| 20260507125004 | 55 | 192 | 3.0 | 9.0 | 0.00 | 0.00 | 0.00 | 81 | 1029.4 |
| 20260507124504 | 55 | 187 | 3.0 | 9.0 | 0.00 | 0.00 | 0.00 | 81 | 1029.4 |
| 20260507124004 | 55 | 182 | 3.0 | 8.0 | 0.00 | 0.00 | 0.00 | 81 | 1029.4 |
| 20260507123504 | 55 | 180 | 4.0 | 10.0 | 0.00 | 0.00 | 0.00 | 81 | 1029.5 |
| 20260507123004 | 55 | 178 | 4.0 | 10.0 | 0.00 | 0.00 | 0.00 | 81 | 1029.6 |
| 20260507122504 | 55 | 179 | 5.0 | 9.0 | 0.00 | 0.00 | 0.00 | 80 | 1029.6 |
| 20260507122004 | 55 | 186 | 6.0 | 13.0 | 0.00 | 0.00 | 0.00 | 80 | 1029.6 |
| 20260507121525 | 56 | 193 | 7.0 | 13.0 | 0.00 | 0.00 | 0.00 | 79 | 1029.6 |
| 20260507121004 | 56 | 208 | 8.0 | 13.0 | 0.00 | 0.00 | 0.00 | 78 | 1029.6 |
| 20260507120504 | 56 | 216 | 8.0 | 15.0 | 0.00 | 0.00 | 0.00 | 75 | 1029.7 |
| 20260507120025 | 57 | 218 | 7.0 | 18.0 | 0.00 | 0.00 | 0.00 | 73 | 1029.6 |
| 20260507115504 | 57 | 212 | 5.0 | 18.0 | 0.00 | 0.00 | 0.00 | 71 | 1029.5 |
| 20260507115004 | 56 | 204 | 4.0 | 9.0 | 0.00 | 0.00 | 0.00 | 70 | 1029.4 |
| 20260507114504 | 56 | 212 | 3.0 | 8.0 | 0.00 | 0.00 | 0.00 | 69 | 1029.4 |
| 20260507114025 | 56 | 221 | 2.0 | 8.0 | 0.00 | 0.00 | 0.00 | 69 | 1029.3 |
| 20260507113503 | 56 | 217 | 2.0 | 6.0 | 0.00 | 0.00 | 0.00 | 70 | 1029.3 |
| 20260507113024 | 56 | 201 | 2.0 | 6.0 | 0.00 | 0.00 | 0.00 | 69 | 1029.4 |
| 20260507112503 | 56 | 201 | 2.0 | 6.0 | 0.00 | 0.00 | 0.00 | 69 | 1029.4 |
| 20260507112004 | 56 | 205 | 3.0 | 5.0 | 0.00 | 0.00 | 0.00 | 69 | 1029.4 |
| 20260507111504 | 56 | 210 | 4.0 | 6.0 | 0.00 | 0.00 | 0.00 | 69 | 1029.3 |
| 20260507111003 | 56 | 210 | 4.0 | 9.0 | 0.00 | 0.00 | 0.00 | 68 | 1029.4 |
| 20260507110525 | 56 | 208 | 3.0 | 9.0 | 0.00 | 0.00 | 0.00 | 68 | 1029.4 |
| 20260507110004 | 56 | 206 | 3.0 | 9.0 | 0.00 | 0.00 | 0.00 | 68 | 1029.4 |
| 20260507105503 | 56 | 206 | 5.0 | 9.0 | 0.00 | 0.00 | 0.00 | 69 | 1029.4 |
| 20260507105004 | 56 | 201 | 5.0 | 13.0 | 0.00 | 0.00 | 0.00 | 69 | 1029.4 |
| 20260507104504 | 56 | 195 | 5.0 | 13.0 | 0.00 | 0.00 | 0.00 | 69 | 1029.5 |
| 20260507104025 | 56 | 194 | 4.0 | 10.0 | 0.00 | 0.00 | 0.00 | 70 | 1029.6 |
| 20260507103504 | 56 | 190 | 3.0 | 9.0 | 0.00 | 0.00 | 0.00 | 71 | 1029.6 |
| 20260507103004 | 56 | 184 | 2.0 | 9.0 | 0.00 | 0.00 | 0.00 | 71 | 1029.6 |
| 20260507102503 | 55 | 181 | 1.0 | 8.0 | 0.00 | 0.00 | 0.00 | 71 | 1029.5 |
| 20260507102004 | 55 | 184 | 1.0 | 6.0 | 0.00 | 0.00 | 0.00 | 71 | 1029.5 |
| 20260507101503 | 55 | 184 | 2.0 | 5.0 | 0.00 | 0.00 | 0.00 | 71 | 1029.5 |
| 20260507101003 | 55 | 190 | 3.0 | 9.0 | 0.00 | 0.00 | 0.00 | 71 | 1029.5 |
| 20260507100525 | 55 | 190 | 3.0 | 9.0 | 0.00 | 0.00 | 0.00 | 71 | 1029.5 |
| 20260507100004 | 55 | 186 | 3.0 | 6.0 | 0.00 | 0.00 | 0.00 | 70 | 1029.5 |
| 20260507095504 | 55 | 189 | 3.0 | 8.0 | 0.00 | 0.00 | 0.00 | 70 | 1029.5 |
| 20260507095003 | 56 | 192 | 3.0 | 8.0 | 0.00 | 0.00 | 0.00 | 70 | 1029.4 |
| 20260507094504 | 56 | 191 | 3.0 | 6.0 | 0.00 | 0.00 | 0.00 | 70 | 1029.3 |
| 20260507094004 | 56 | 187 | 3.0 | 6.0 | 0.00 | 0.00 | 0.00 | 69 | 1029.4 |
| 20260507093504 | 56 | 186 | 3.0 | 9.0 | 0.00 | 0.00 | 0.00 | 69 | 1029.3 |
| 20260507093003 | 56 | 188 | 4.0 | 9.0 | 0.00 | 0.00 | 0.00 | 70 | 1029.3 |
| 20260507092504 | 56 | 190 | 4.0 | 9.0 | 0.00 | 0.00 | 0.00 | 70 | 1029.3 |
| 20260507092004 | 56 | 191 | 4.0 | 8.0 | 0.00 | 0.00 | 0.00 | 70 | 1029.2 |
| 20260507091504 | 56 | 189 | 4.0 | 8.0 | 0.00 | 0.00 | 0.00 | 70 | 1029.2 |
| 20260507091004 | 56 | 191 | 4.0 | 10.0 | 0.00 | 0.00 | 0.00 | 70 | 1029.2 |
| 20260507090504 | 56 | 191 | 5.0 | 10.0 | 0.00 | 0.00 | 0.00 | 70 | 1029.1 |
| 20260507090005 | 55 | 187 | 5.0 | 9.0 | 0.00 | 0.00 | 0.00 | 70 | 1029.1 |
| 20260507085503 | 55 | 189 | 5.0 | 9.0 | 0.00 | 0.00 | 0.00 | 70 | 1029.1 |
| 20260507085004 | 55 | 192 | 5.0 | 10.0 | 0.00 | 0.00 | 0.00 | 69 | 1029.0 |
| 20260507084524 | 55 | 192 | 5.0 | 10.0 | 0.00 | 0.01 | 0.00 | 69 | 1029.0 |
| 20260507084003 | 55 | 196 | 5.0 | 13.0 | 0.00 | 0.01 | 0.00 | 68 | 1028.9 |
| 20260507083524 | 55 | 196 | 5.0 | 13.0 | 0.00 | 0.01 | 0.00 | 67 | 1028.8 |
| 20260507083004 | 56 | 195 | 5.0 | 10.0 | 0.00 | 0.01 | 0.00 | 67 | 1028.7 |
| 20260507082503 | 56 | 197 | 5.0 | 10.0 | 0.00 | 0.01 | 0.00 | 66 | 1028.7 |
| 20260507082003 | 56 | 197 | 5.0 | 10.0 | 0.00 | 0.01 | 0.00 | 66 | 1028.7 |
| 20260507081504 | 57 | 200 | 6.0 | 11.0 | 0.00 | 0.01 | 0.00 | 65 | 1028.7 |
| 20260507081003 | 57 | 198 | 8.0 | 11.0 | 0.00 | 0.01 | 0.00 | 65 | 1028.7 |
| 20260507080504 | 58 | 200 | 9.0 | 14.0 | 0.00 | 0.01 | 0.00 | 64 | 1028.6 |
| 20260507080004 | 58 | 203 | 9.0 | 17.0 | 0.00 | 0.01 | 0.00 | 64 | 1028.6 |
| 20260507075504 | 58 | 203 | 9.0 | 17.0 | 0.00 | 0.01 | 0.00 | 63 | 1028.6 |
| 20260507075004 | 58 | 204 | 8.0 | 17.0 | 0.00 | 0.01 | 0.00 | 63 | 1028.6 |
| 20260507074503 | 58 | 209 | 8.0 | 15.0 | 0.00 | 0.01 | 0.00 | 61 | 1028.6 |
| 20260507074003 | 59 | 214 | 7.0 | 17.0 | 0.00 | 0.01 | 0.00 | 60 | 1028.7 |
| 20260507073503 | 59 | 217 | 7.0 | 17.0 | 0.00 | 0.01 | 0.00 | 59 | 1028.7 |
| 20260507073004 | 59 | 224 | 7.0 | 14.0 | 0.00 | 0.01 | 0.00 | 59 | 1028.6 |
| 20260507072524 | 60 | 218 | 6.0 | 14.0 | 0.00 | 0.01 | 0.00 | 58 | 1028.7 |
| 20260507072024 | 60 | 205 | 6.0 | 11.0 | 0.00 | 0.01 | 0.00 | 58 | 1028.7 |
| 20260507071504 | 59 | 203 | 7.0 | 14.0 | 0.00 | 0.01 | 0.00 | 59 | 1028.7 |
| 20260507071003 | 59 | 202 | 7.0 | 14.0 | 0.00 | 0.01 | 0.00 | 59 | 1028.7 |
| 20260507070503 | 59 | 202 | 6.0 | 15.0 | 0.00 | 0.01 | 0.00 | 59 | 1028.6 |
| 20260507070024 | 59 | 203 | 5.0 | 15.0 | 0.00 | 0.01 | 0.00 | 60 | 1028.6 |
| 20260507065504 | 59 | 202 | 5.0 | 11.0 | 0.00 | 0.01 | 0.00 | 62 | 1028.6 |
| 20260507065024 | 59 | 196 | 5.0 | 11.0 | 0.00 | 0.01 | 0.00 | 61 | 1028.6 |
| 20260507064503 | 60 | 191 | 6.0 | 11.0 | 0.00 | 0.01 | 0.00 | 61 | 1028.6 |
| 20260507064003 | 60 | 197 | 6.0 | 14.0 | 0.00 | 0.01 | 0.00 | 61 | 1028.6 |
| 20260507063503 | 60 | 200 | 6.0 | 14.0 | 0.00 | 0.01 | 0.00 | 60 | 1028.5 |
| 20260507063024 | 60 | 202 | 6.0 | 13.0 | 0.00 | 0.01 | 0.00 | 60 | 1028.6 |
| 20260507062524 | 60 | 201 | 6.0 | 15.0 | 0.00 | 0.01 | 0.00 | 61 | 1028.5 |
| 20260507062003 | 60 | 196 | 6.0 | 15.0 | 0.00 | 0.01 | 0.00 | 61 | 1028.5 |
| 20260507061503 | 60 | 199 | 7.0 | 14.0 | 0.00 | 0.01 | 0.00 | 61 | 1028.5 |
| 20260507061003 | 60 | 210 | 8.0 | 14.0 | 0.00 | 0.01 | 0.00 | 61 | 1028.5 |
| 20260507060503 | 60 | 216 | 9.0 | 18.0 | 0.00 | 0.01 | 0.00 | 60 | 1028.5 |
| 20260507060004 | 60 | 216 | 8.0 | 18.0 | 0.00 | 0.01 | 0.00 | 60 | 1028.5 |
| 20260507055503 | 60 | 221 | 7.0 | 17.0 | 0.00 | 0.01 | 0.00 | 60 | 1028.5 |
| 20260507055004 | 60 | 218 | 7.0 | 17.0 | 0.00 | 0.01 | 0.00 | 59 | 1028.5 |
| 20260507054504 | 60 | 213 | 8.0 | 14.0 | 0.00 | 0.01 | 0.00 | 59 | 1028.6 |
| 20260507054004 | 60 | 219 | 9.0 | 15.0 | 0.00 | 0.01 | 0.00 | 60 | 1028.6 |
| 20260507053525 | 60 | 218 | 9.0 | 17.0 | 0.00 | 0.01 | 0.00 | 57 | 1028.6 |
| 20260507053005 | 61 | 205 | 9.0 | 17.0 | 0.00 | 0.01 | 0.00 | 58 | 1028.5 |
| 20260507052504 | 61 | 203 | 9.0 | 17.0 | 0.00 | 0.01 | 0.00 | 57 | 1028.5 |
| 20260507052004 | 61 | 205 | 8.0 | 18.0 | 0.00 | 0.01 | 0.00 | 57 | 1028.5 |
| 20260507051504 | 61 | 203 | 9.0 | 18.0 | 0.00 | 0.01 | 0.00 | 56 | 1028.5 |
| 20260507051025 | 61 | 206 | 10.0 | 18.0 | 0.00 | 0.02 | 0.00 | 58 | 1028.5 |